Mountain Home, AR

8:38 PM CDT on April 21, 2018 (GMT -0500)
Baxter County Regional

Weather History for KBPK - December, 2011

Change the Weather History Date:

Tuesday, December 20, 2011

  Actual Average (KFLP) Record (KFLP)
Temperature  
Mean Temperature 50 °F -  
Max Temperature 57 °F 43 °F 69 °F (2013)
Min Temperature 44 °F 25 °F 8 °F (1996)
Degree Days  
Heating Degree Days 14    
Moisture  
Dew Point 45 °F    
Average Humidity 92    
Maximum Humidity 100    
Minimum Humidity 71    
Precipitation  
Precipitation 0.61 in - - ()
Sea Level Pressure  
Sea Level Pressure 29.86 in    
Wind  
Wind Speed 6 mph (ESE)    
Max Wind Speed 12 mph    
Max Gust Speed 17 mph    
Visibility 6 miles    
Events Fog , Rain    
Averages and records for this station are not official NWS values.
T = Trace of Precipitation, MM = Missing Value Source: NWS Daily Summary

Daily Weather History Graph

Daily Weather History Graph

Search for Another Location

Airport or City:

Astronomy

Dec. 20, 2011 Rise Set
Actual Time 7:17 AM CST 4:57 PM CST
Civil Twilight 6:48 AM CST 5:26 PM CST
Nautical Twilight 6:15 AM CST 5:58 PM CST
Astronomical Twilight 5:44 AM CST 6:30 PM CST
Moon 2:42 AM CST (12/20) 1:30 PM CST (12/20)
Length of Visible Light 10h 38m
Length of Day
9h 40m
Waning Crescent, 21% of the Moon is Illuminated
Dec 20
Waning Crescent
Dec 24
New
Jan 1
First Quarter
Jan 9
Full
Jan 16
Last Quarter

Hourly Weather History & Observations

Time (CST) Temp. Windchill Dew Point Humidity Pressure Visibility Wind Dir Wind Speed Gust Speed Precip Events Conditions
12:53 AM 46.0 °F 43.9 °F 44.1 °F 93% 30.01 in 3.0 mi Variable 4.6 mph - N/A Rain Heavy Rain
12:55 AM 44.6 °F 43.1 °F 44.6 °F 100% 30.01 in 2.5 mi Variable 3.5 mph - 0.00 in Rain Heavy Rain
1:02 AM 44.6 °F 40.2 °F 44.6 °F 100% 29.96 in 2.0 mi ENE 8.1 mph - 0.02 in Rain Heavy Rain
1:12 AM 44.6 °F 40.2 °F 44.6 °F 100% 29.98 in 4.0 mi East 8.1 mph - 0.04 in Rain Rain
1:33 AM 44.6 °F 40.2 °F 44.6 °F 100% 29.95 in 5.0 mi East 8.1 mph - 0.09 in Rain Rain
1:53 AM 45.0 °F 41.2 °F 43.0 °F 93% 29.95 in 4.0 mi ENE 6.9 mph - 0.14 in Rain Light Rain
2:04 AM 44.6 °F 41.4 °F 42.8 °F 93% 29.95 in 5.0 mi East 5.8 mph - 0.03 in Rain Rain
2:27 AM 44.6 °F 43.1 °F 44.6 °F 100% 29.95 in 7.0 mi ENE 3.5 mph - 0.08 in Rain Light Rain
2:53 AM 44.1 °F 40.1 °F 43.0 °F 96% 29.93 in 7.0 mi ENE 6.9 mph - 0.13 in Rain Light Rain
3:17 AM 44.6 °F 38.8 °F 42.8 °F 93% 29.89 in 7.0 mi East 11.5 mph - 0.04 in Rain Light Rain
3:53 AM 44.1 °F 39.0 °F 43.0 °F 96% 29.88 in 6.0 mi East 9.2 mph - 0.10 in Rain Light Rain
4:26 AM 44.6 °F 39.7 °F 44.6 °F 100% 29.89 in 5.0 mi ESE 9.2 mph - 0.04 in   Overcast
4:53 AM 45.0 °F 41.2 °F 44.1 °F 97% 29.88 in 4.0 mi ESE 6.9 mph - 0.07 in   Overcast
5:29 AM 44.6 °F 40.7 °F 44.6 °F 100% 29.87 in 2.0 mi ESE 6.9 mph - 0.04 in   Overcast
5:41 AM 44.6 °F 39.7 °F 44.6 °F 100% 29.88 in 1.5 mi ESE 9.2 mph - 0.06 in   Overcast
5:53 AM 45.0 °F 41.2 °F 45.0 °F 100% 29.87 in 1.0 mi ESE 6.9 mph - 0.07 in   Overcast
6:00 AM 44.6 °F 40.7 °F 44.6 °F 100% 29.88 in 0.8 mi ESE 6.9 mph - 0.01 in   Overcast
6:14 AM 44.6 °F 41.4 °F 44.6 °F 100% 29.88 in 0.5 mi ESE 5.8 mph - 0.02 in Fog Fog
6:53 AM 45.0 °F 42.6 °F 45.0 °F 100% 29.89 in 0.5 mi ESE 4.6 mph - 0.05 in Fog Fog
7:45 AM 44.6 °F 42.2 °F 44.6 °F 100% 29.88 in 0.8 mi ESE 4.6 mph - 0.03 in   Mist
7:53 AM 45.0 °F 42.6 °F 45.0 °F 100% 29.88 in 0.8 mi ESE 4.6 mph - 0.03 in   Mist
8:00 AM 46.4 °F 44.3 °F 44.6 °F 93% 29.87 in 0.5 mi ESE 4.6 mph - 0.01 in Fog Fog
8:53 AM 46.0 °F 43.9 °F 46.0 °F 100% 29.88 in 0.5 mi East 4.6 mph - 0.02 in Fog Fog
9:32 AM 46.4 °F 43.5 °F 46.4 °F 100% 29.87 in 1.0 mi ESE 5.8 mph - N/A   Overcast
9:53 AM 48.0 °F - 48.0 °F 100% 29.87 in 1.0 mi SE 5.8 mph - N/A   Overcast
10:11 AM 48.2 °F - 48.2 °F 100% 29.87 in 3.0 mi ESE 5.8 mph - N/A   Overcast
10:53 AM 50.0 °F - 48.9 °F 96% 29.87 in 6.0 mi SSE 5.8 mph - N/A   Overcast
11:53 AM 52.0 °F - 48.9 °F 89% 29.84 in 9.0 mi SSE 4.6 mph - N/A   Overcast
12:38 PM 55.4 °F - 50.0 °F 82% 29.81 in 10.0 mi SE 3.5 mph - N/A   Mostly Cloudy
12:53 PM 55.0 °F - 50.0 °F 83% 29.80 in 10.0 mi East 4.6 mph - N/A   Mostly Cloudy
1:41 PM 57.2 °F - 50.0 °F 77% 29.78 in 10.0 mi East 5.8 mph - N/A   Partly Cloudy
1:53 PM 55.9 °F - 50.0 °F 80% 29.76 in 10.0 mi ENE 4.6 mph - N/A   Partly Cloudy
3:27 PM 53.6 °F - 50.0 °F 88% 29.75 in 10.0 mi ENE 5.8 mph - N/A   Scattered Clouds
3:53 PM 53.1 °F - 50.0 °F 89% 29.75 in 10.0 mi ENE 6.9 mph - N/A   Clear
4:53 PM 53.1 °F - 50.0 °F 89% 29.75 in 9.0 mi ESE 6.9 mph - N/A   Clear
5:53 PM 50.0 °F - 48.0 °F 93% 29.76 in 10.0 mi SE 5.8 mph - N/A   Clear
6:53 PM 50.0 °F - 48.0 °F 93% 29.75 in 10.0 mi SSE 3.5 mph - N/A   Mostly Cloudy
7:53 PM 51.1 °F - 48.9 °F 92% 29.75 in 10.0 mi SSW 4.6 mph - N/A   Overcast
8:53 PM 51.1 °F - 48.0 °F 89% 29.75 in 10.0 mi SW 4.6 mph - N/A   Mostly Cloudy
9:24 PM 50.0 °F - 44.6 °F 82% 29.76 in 10.0 mi Variable 6.9 mph - N/A   Mostly Cloudy
9:53 PM 48.0 °F - 39.9 °F 74% 29.78 in 10.0 mi West 8.1 mph 17.3 mph N/A   Overcast
10:15 PM 46.4 °F 43.5 °F 39.2 °F 76% 29.79 in 10.0 mi West 5.8 mph - N/A   Overcast
10:53 PM 46.9 °F - 37.9 °F 71% 29.80 in 10.0 mi West 5.8 mph - N/A   Overcast
11:53 PM 46.0 °F 41.9 °F 37.0 °F 71% 29.80 in 10.0 mi West 8.1 mph - N/A   Mostly Cloudy